Stations météo

réclame
Mon MeteoGroup
List/Sylt, Allemagne (10020): Température de l'air & dewpoint: 07.12.2019 12:00:00 - 13.12.2019 12:00:00 (CET)List/Sylt, Allemagne (10020): Température de l'air 5cm & Température de l'air -5cm: 07.12.2019 12:00:00 - 13.12.2019 12:00:00 (CET)List/Sylt, Allemagne (10020): Température de l'air -20cm: 07.12.2019 12:00:00 - 13.12.2019 12:00:00 (CET)List/Sylt, Allemagne (10020): Vitesse du vent & gusts: 07.12.2019 12:00:00 - 13.12.2019 12:00:00 (CET)List/Sylt, Allemagne (10020): Direction du vent: 07.12.2019 12:00:00 - 13.12.2019 12:00:00 (CET)List/Sylt, Allemagne (10020): reduced air pressure: 07.12.2019 12:00:00 - 13.12.2019 12:00:00 (CET)List/Sylt, Allemagne (10020): visibility: 07.12.2019 12:00:00 - 13.12.2019 12:00:00 (CET)List/Sylt, Allemagne (10020): Ensoleillement: 07.12.2019 12:00:00 - 13.12.2019 12:00:00 (CET)List/Sylt, Allemagne (10020): Quantités de précipitations: 07.12.2019 12:00:00 - 13.12.2019 12:00:00 (CET)
Date & Time tt [°C] td [°C] tt 5cm [°C] tt -5cm [°C] tt -20cm [°C] ff [km/h] ff [knt] fx [km/h] fx [knt] dd ppp [hPa] vv [km] sd [min] rr [mm]
13.12.2019 12:00:00 2,4 -0,4 2,9 2,8 4,1 36 20 51 27 ESE 980,1 23 23 0,0
13.12.2019 11:00:00 1,7 -0,9 1,3 2,8 4,1 38 21 52 28 ESE 980,0 21 60 0,0
13.12.2019 10:00:00 1,7 -0,9 1,1 2,8 4,2 36 19 52 28 ESE 980,2 22 13 0,0
13.12.2019 09:00:00 1,7 -1,1 0,6 2,9 4,3 36 19 58 32 ESE 980,0 26 0 0,0
13.12.2019 08:00:00 2,0 -1,0 0,7 3,0 4,4 41 22 58 32 SE 980,2 31 0 0,0
13.12.2019 07:00:00 2,1 -0,7 0,9 3,1 4,4 44 24 63 34 SE 980,5 25 0 0,0
13.12.2019 06:00:00 2,3 -0,4 1,0 3,2 4,5 45 24 67 36 SE 981,0 28 0 0,0
13.12.2019 05:00:00 2,4 -0,2 1,2 3,3 4,6 46 25 68 37 SE 981,6 24 0 0,0
13.12.2019 04:00:00 2,5 0,2 1,4 3,4 4,7 47 26 69 37 SE 982,5 20 0 0,0
13.12.2019 03:00:00 2,4 0,1 1,4 3,5 4,8 46 25 63 34 SE 983,9 18 0 0,0
13.12.2019 02:00:00 2,5 0,2 1,4 3,6 4,9 42 23 59 32 SE 985,1 15 0 0,0
13.12.2019 01:00:00 2,6 0,6 1,5 3,8 5,0 41 22 61 33 SE 986,3 11 0 0,0
13.12.2019 00:00:00 2,7 0,9 1,6 3,9 5,1 41 22 55 30 SE 987,7 7 0 0,0
12.12.2019 23:00:00 2,9 1,3 1,6 4,1 5,1 33 18 55 30 SSE 989,1 7 0 0,0
12.12.2019 22:00:00 3,6 1,3 2,3 4,2 5,2 40 21 51 28 SSE 990,1 13 0 0,0
12.12.2019 21:00:00 4,2 1,4 2,7 4,3 5,3 39 21 51 28 SSE 991,0 19 0 0,0
12.12.2019 20:00:00 4,6 1,0 2,8 4,5 5,4 32 18 46 25 S 992,1 32 0 0,0
12.12.2019 19:00:00 5,0 2,0 3,2 4,6 5,4 33 18 42 23 S 992,8 27 0 0,0
12.12.2019 18:00:00 5,2 2,1 3,2 4,8 5,5 31 17 40 21 SSW 993,5 33 0 0,0
12.12.2019 17:00:00 5,0 2,0 3,5 5,0 5,5 18 10 46 25 SSW 994,2 42 0 0,1
12.12.2019 16:00:00 5,7 1,8 4,3 5,1 5,5 26 14 40 22 SSW 994,2 42 0 0,0
12.12.2019 15:00:00 6,4 1,5 4,4 5,4 5,5 24 13 35 19 SW 994,5 35 47 0,0
12.12.2019 14:00:00 6,3 1,0 4,7 5,4 5,5 19 10 41 22 SW 994,9 53 23 0,0
12.12.2019 13:00:00 5,9 2,9 5,5 5,4 5,4 18 10 36 20 SSW 995,5 52 5 0,1
12.12.2019 12:00:00 6,1 3,7 6,3 5,1 5,3 22 12 36 20 SW 995,8 33 0 0,0
12.12.2019 11:00:00 5,5 3,4 4,6 5,0 5,3 24 13 46 25 SSW 996,2 54 0 0,3
12.12.2019 10:00:00 5,8 4,3 5,2 4,9 5,3 32 17 41 22 SSW 996,4 8 0 0,0
12.12.2019 09:00:00 5,5 3,9 4,8 4,8 5,3 31 17 41 22 S 996,8 8 0 0,0
12.12.2019 08:00:00 5,1 3,5 4,4 4,7 5,3 32 17 39 21 SSE 997,0 9 0 0,0
12.12.2019 07:00:00 5,3 3,0 4,2 4,5 5,3 25 14 37 20 S 997,6 15 0 0,0
12.12.2019 06:00:00 5,3 2,9 3,5 4,4 5,3 29 16 38 21 S 997,9 14 0 0,0
12.12.2019 05:00:00 5,2 3,0 3,4 4,5 5,4 25 13 33 18 SSW 998,2 15 0 0,0
12.12.2019 04:00:00 5,4 3,9 3,7 4,6 5,5 23 12 29 15 SSW 998,7 11 0 0,0
12.12.2019 03:00:00 5,6 4,2 4,0 4,7 5,5 17 9 25 13 SSW 999,5 9 0 0,0
12.12.2019 02:00:00 5,7 4,6 4,3 4,8 5,5 16 9 21 12 S 999,7 7 0 0,0
12.12.2019 01:00:00 5,6 4,4 4,3 4,8 5,6 18 10 26 14 S 1000,3 11 0 0,0
12.12.2019 00:00:00 5,5 4,2 4,1 4,8 5,6 16 9 25 13 S 1000,9 14 0 0,0
11.12.2019 23:00:00 5,5 4,5 4,2 4,9 5,7 17 9 26 14 S 1001,2 8 0 0,0
11.12.2019 22:00:00 5,4 4,5 4,2 5,0 5,8 21 12 27 15 S 1001,6 6 0 0,0
11.12.2019 21:00:00 5,5 4,6 4,0 5,1 5,8 17 9 27 15 S 1001,9 8 0 0,0
11.12.2019 20:00:00 5,6 4,7 4,2 5,3 5,9 21 12 28 15 S 1002,3 9 0 0,0
11.12.2019 19:00:00 5,8 4,6 4,6 5,4 5,9 22 12 28 15 S 1002,5 14 0 0,0
11.12.2019 18:00:00 5,9 4,7 4,8 5,5 6,0 21 12 27 15 SSW 1002,6 15 0 0,0
11.12.2019 17:00:00 6,2 4,9 5,1 5,7 6,0 21 11 31 17 SSW 1002,8 16 0 0,0
11.12.2019 16:00:00 6,7 5,1 6,0 5,8 5,9 23 12 31 17 SSW 1002,9 17 0 0,0
11.12.2019 15:00:00 6,9 5,0 6,0 5,8 5,9 20 11 28 15 SSW 1003,1 18 0 0,0
11.12.2019 14:00:00 7,2 3,8 6,0 5,8 5,9 20 11 28 15 SSW 1003,4 23 5 0,0
11.12.2019 13:00:00 7,3 5,0 6,7 5,7 5,8 18 10 27 14 SSW 1003,7 20 19 0,0
11.12.2019 12:00:00 6,8 5,2 5,9 5,7 5,8 15 8 28 15 SSW 1004,2 16 12 0,0
11.12.2019 11:00:00 7,5 4,3 6,2 5,6 5,8 20 11 27 15 SW 1004,6 21 0 0,0
11.12.2019 10:00:00 7,0 4,5 5,5 5,5 5,8 16 9 25 13 SW 1004,4 17 0 0,0
11.12.2019 09:00:00 7,1 4,5 5,6 5,5 5,8 19 10 27 15 SW 1004,3 16 0 0,0
11.12.2019 08:00:00 7,0 5,5 5,9 5,7 5,8 19 11 45 24 SW 1003,8 14 0 0,0
11.12.2019 07:00:00 7,3 5,6 6,5 5,6 5,7 31 17 48 26 SSW 1003,3 15 0 0,0
11.12.2019 06:00:00 6,9 5,5 6,2 5,6 5,7 37 20 69 37 SSW 1002,6 18 0 0,0
11.12.2019 05:00:00 6,8 5,4 6,2 5,5 5,6 53 29 79 42 SW 1002,0 10 0 0,1
11.12.2019 04:00:00 6,7 4,2 6,0 5,4 5,6 53 28 80 43 SSW 1002,0 12 0 0,0
11.12.2019 03:00:00 6,6 3,7 5,7 5,3 5,6 60 32 85 46 SSW 1002,0 17 0 0,0
11.12.2019 02:00:00 6,5 3,1 5,3 5,2 5,6 58 31 86 47 SSW 1002,4 18 0 0,0
11.12.2019 01:00:00 6,2 2,8 5,1 5,1 5,6 55 30 84 45 SSW 1003,4 10 0 0,0
11.12.2019 00:00:00 5,9 2,2 4,6 5,1 5,6 61 33 85 46 SSW 1004,6 20 0 0,0
10.12.2019 23:00:00 5,8 1,9 4,5 5,0 5,6 60 33 85 46 S 1005,2 15 0 0,0
10.12.2019 22:00:00 5,2 2,1 4,2 5,0 5,6 57 31 84 45 S 1006,0 17 0 0,1
10.12.2019 21:00:00 5,0 2,0 3,9 5,0 5,6 58 32 81 44 S 1007,2 10 0 0,0
10.12.2019 20:00:00 5,2 1,5 4,8 5,0 5,6 53 29 77 42 S 1009,1 22 0 0,0
10.12.2019 19:00:00 5,5 1,0 4,8 5,0 5,7 52 28 73 40 S 1010,2 25 0 0,0
10.12.2019 18:00:00 5,5 1,5 4,8 5,1 5,7 49 26 67 36 S 1011,7 26 0 0,0
10.12.2019 17:00:00 5,8 1,5 4,8 5,2 5,7 48 26 64 34 S 1012,9 26 0 0,0
10.12.2019 16:00:00 6,1 2,4 5,0 5,4 5,7 41 22 56 31 S 1014,6 25 0 0,0
10.12.2019 15:00:00 6,6 2,4 5,9 5,4 5,6 41 22 55 30 SSW 1015,7 26 4 0,0
10.12.2019 14:00:00 7,0 0,7 6,6 5,4 5,6 36 20 49 27 SSW 1016,7 30 0 0,0
10.12.2019 13:00:00 7,2 -0,4 6,8 5,3 5,5 31 17 41 22 SSW 1017,7 36 10 0,0
10.12.2019 12:00:00 6,9 1,4 8,4 5,0 5,4 19 10 35 19 SSW 1018,7 40 10 0,0
10.12.2019 11:00:00 6,6 1,6 6,2 4,7 5,4 16 9 21 12 SW 1019,3 33 0 0,0
10.12.2019 10:00:00 6,3 -1,1 5,3 4,5 5,5 10 5 27 14 WSW 1019,3 37 3 0,0
10.12.2019 09:00:00 6,3 -1,1 4,7 4,5 5,5 18 10 27 14 W 1018,9 40 0 0,0
10.12.2019 08:00:00 5,6 0,5 3,4 4,6 5,6 16 9 29 16 WNW 1018,5 32 0 0,0
10.12.2019 07:00:00 6,3 0,6 5,1 4,7 5,7 22 12 38 21 WNW 1018,4 32 0 0,0
10.12.2019 06:00:00 4,6 0,5 3,2 4,8 5,7 16 9 54 29 NNW 1017,6 35 0 0,0
10.12.2019 05:00:00 5,8 0,7 5,0 4,8 5,8 34 18 49 27 NW 1016,8 30 0 0,0
10.12.2019 04:00:00 5,7 1,2 4,4 4,8 5,8 35 19 59 32 NNW 1015,8 27 0 0,0
10.12.2019 03:00:00 6,2 0,3 5,0 4,9 5,9 40 22 54 29 NW 1014,7 23 0 0,0
10.12.2019 02:00:00 6,1 0,5 5,0 5,1 6,0 34 19 65 35 NNW 1013,5 22 0 0,0
10.12.2019 01:00:00 6,4 0,1 5,3 5,1 6,0 50 27 68 37 NNW 1012,1 24 0 0,0
10.12.2019 00:00:00 6,8 -0,3 5,6 5,2 6,1 52 28 73 39 NNW 1010,4 22 0 0,0
09.12.2019 23:00:00 6,8 1,1 5,7 5,4 6,1 50 27 72 39 NNW 1008,5 23 0 0,0
09.12.2019 22:00:00 6,9 1,4 5,8 5,4 6,2 52 28 79 43 NNW 1007,1 18 0 0,0
09.12.2019 21:00:00 6,9 1,2 5,7 5,4 6,3 54 29 77 42 NW 1005,1 20 0 0,0
09.12.2019 20:00:00 6,1 1,1 5,0 5,5 6,3 56 30 81 44 NW 1003,5 22 0 0,0
09.12.2019 19:00:00 5,8 -0,1 4,9 5,6 6,4 64 35 92 50 NW 1001,5 35 0 0,0
09.12.2019 18:00:00 6,8 0,8 5,7 5,7 6,5 63 34 82 44 NW 1000,1 20 0 0,0
09.12.2019 17:00:00 6,9 1,4 5,7 5,9 6,6 53 29 73 40 NW 998,7 17 0 0,0
09.12.2019 16:00:00 7,2 1,6 5,7 6,2 6,6 52 28 72 39 NW 997,0 21 0 0,0
09.12.2019 15:00:00 7,3 1,9 5,6 6,3 6,6 50 27 68 37 NW 995,4 21 2 0,0
09.12.2019 14:00:00 6,8 3,0 5,7 6,4 6,6 30 16 49 26 NNW 994,3 26 0 0,6
09.12.2019 13:00:00 6,9 3,7 6,0 6,3 6,6 27 15 41 22 NW 992,7 16 0 0,8
09.12.2019 12:00:00 7,5 4,6 6,6 6,2 6,6 26 14 39 21 W 991,4 34 0 0,1
09.12.2019 11:00:00 6,6 4,4 5,8 6,1 6,6 20 11 44 24 SW 991,0 18 0 0,2
09.12.2019 10:00:00 6,4 4,8 5,2 6,2 6,6 32 18 60 33 WSW 989,9 2,3 0 1,5
09.12.2019 09:00:00 7,0 4,7 5,8 6,2 6,6 34 18 59 32 WSW 988,5 15 0 0,5
09.12.2019 08:00:00 7,7 3,6 5,9 6,1 6,7 36 19 61 33 SW 987,8 20 0 0,0
09.12.2019 07:00:00 7,7 3,6 6,1 6,2 6,7 40 22 65 35 SW 987,2 18 0 0,0
09.12.2019 06:00:00 7,9 3,7 6,1 6,2 6,7 40 22 69 37 SW 986,7 19 0 0,0
09.12.2019 05:00:00 6,5 3,5 5,4 6,2 6,7 30 16 61 33 WSW 987,2 25 0 0,3
09.12.2019 04:00:00 7,7 3,6 6,2 6,1 6,8 38 21 69 37 SW 986,8 20 0 0,0
09.12.2019 03:00:00 7,3 3,3 5,6 6,2 6,9 38 21 72 39 SW 987,2 15 0 0,0
09.12.2019 02:00:00 7,6 2,8 5,6 6,2 6,9 41 22 66 36 WSW 986,7 22 0 0,0
09.12.2019 01:00:00 7,8 3,0 5,9 6,4 7,0 44 24 62 33 WSW 986,9 20 0 0,0
09.12.2019 00:00:00 7,3 3,3 5,6 6,5 7,0 42 23 89 48 WSW 987,1 20 0 0,0
08.12.2019 23:00:00 7,7 2,4 5,6 6,6 7,1 43 23 75 41 WSW 986,8 28 0 0,0
08.12.2019 22:00:00 7,9 3,7 6,1 6,6 7,2 40 22 68 37 WSW 987,1 20 0 0,4
08.12.2019 21:00:00 7,2 3,8 5,8 6,7 7,3 39 21 85 46 W 987,6 13 0 0,1
08.12.2019 20:00:00 8,1 3,8 6,4 6,8 7,4 49 27 74 40 WSW 987,4 18 0 0,0
08.12.2019 19:00:00 7,5 4,5 5,6 6,9 7,5 39 21 91 49 WSW 988,0 16 0 0,6
08.12.2019 18:00:00 7,2 2,8 5,4 7,2 7,5 53 29 82 45 WSW 988,2 30 0 0,3
08.12.2019 17:00:00 7,6 4,3 6,3 7,4 7,6 37 20 83 45 W 988,3 7 0 0,0
08.12.2019 16:00:00 8,8 4,6 7,0 7,6 7,6 45 24 69 38 WSW 988,1 16 0 0,0
08.12.2019 15:00:00 9,0 3,8 7,2 7,9 7,6 45 24 65 35 W 988,0 19 18 0,0
08.12.2019 14:00:00 9,5 6,9 8,7 8,0 7,5 47 26 65 35 WSW 987,8 13 7 0,0
08.12.2019 13:00:00 9,8 7,8 9,3 7,9 7,4 41 22 62 33 WSW 987,7 14 2 0,0
08.12.2019 12:00:00 9,4 8,2 8,9 7,7 7,4 44 24 83 45 SW 987,6 12 0 0,5
08.12.2019 11:00:00 8,9 7,8 8,5 7,6 7,3 64 34 88 48 SW 987,2 3,5 0 0,2
08.12.2019 10:00:00 8,6 7,7 8,3 7,5 7,3 64 35 89 48 SW 988,1 2,7 0 0,1
08.12.2019 09:00:00 8,4 7,2 7,9 7,4 7,3 68 37 99 54 SW 988,7 6 0 0,1
08.12.2019 08:00:00 8,2 6,8 7,6 7,4 7,3 64 34 90 49 SSW 989,8 3,5 0 0,7
08.12.2019 07:00:00 8,5 7,0 7,9 7,4 7,2 66 36 86 46 SW 991,3 6 0 0,3
08.12.2019 06:00:00 8,9 6,8 8,6 7,3 7,2 61 33 83 45 SW 992,7 12 0 0,0
08.12.2019 05:00:00 8,7 6,6 8,4 7,2 7,2 58 31 79 43 SSW 994,5 13 0 0,0
08.12.2019 04:00:00 8,5 6,0 8,1 7,2 7,2 58 32 78 42 SW 996,3 16 0 0,0
08.12.2019 03:00:00 8,5 5,8 8,1 7,2 7,2 53 28 71 38 SSW 998,1 20 0 0,0
08.12.2019 02:00:00 8,5 5,6 8,1 7,1 7,1 50 27 62 33 SSW 999,7 23 0 0,0
08.12.2019 01:00:00 8,7 5,8 8,2 7,1 7,1 40 22 57 31 SW 1001,3 23 0 0,0
08.12.2019 00:00:00 8,6 6,3 7,8 7,1 7,1 35 19 50 27 SW 1002,6 20 0 0,0
07.12.2019 23:00:00 8,7 6,4 8,1 7,0 7,1 28 15 41 22 SW 1003,8 24 0 0,0
07.12.2019 22:00:00 8,1 6,7 7,3 6,9 7,1 29 16 50 27 WSW 1004,8 25 0 0,0
07.12.2019 21:00:00 8,4 6,1 7,7 6,8 7,1 25 13 35 19 WSW 1005,1 39 0 0,0
07.12.2019 20:00:00 7,7 5,6 7,0 6,8 7,2 16 8 26 14 SW 1005,4 25 0 0,0
07.12.2019 19:00:00 7,8 4,5 6,8 6,8 7,2 19 10 32 18 WSW 1005,5 39 0 0,0
07.12.2019 18:00:00 7,5 3,8 6,4 7,0 7,3 24 13 41 22 W 1005,5 43 0 0,0
07.12.2019 17:00:00 7,7 4,7 6,7 7,1 7,3 31 17 49 26 W 1005,6 34 0 0,0
07.12.2019 16:00:00 7,5 4,0 6,2 7,3 7,4 38 20 53 29 WNW 1005,0 28 0 0,0
07.12.2019 15:00:00 8,1 5,0 7,4 7,4 7,3 32 17 50 27 W 1004,3 9 17 0,0
07.12.2019 14:00:00 8,5 4,3 8,2 7,4 7,3 35 19 46 25 WNW 1003,8 22 45 0,0
07.12.2019 13:00:00 8,4 4,0 7,6 7,4 7,3 35 19 49 27 WNW 1003,4 32 10 0,0
07.12.2019 12:00:00 8,8 4,7 9,0 7,2 7,3 37 20 49 26 WNW 1002,9 33 49 0,0

tt = Température de l'air
td = dewpoint
tt 5cm = Température de l'air 5cm
tt -5cm = Température de l'air -5cm
tt -20cm = Température de l'air -20cm
ff = Vitesse du vent
fx = gusts
dd = Direction du vent
ppp = reduced air pressure
vv = visibility
sd = Ensoleillement
rr = Quantités de précipitations

stations d'obs. à proximité